CES1106 ZJHK-ZHCC

Flight info

Callsign CES1106
Flight time N/A
Altitude 35100
Route AGTEL W71 LH R339 BHY DCT LBN R343 GOSMA W82 UPMAT W56 IGMIG
Aircraft A359/H-SDE2E3GHIJ3J4J5LM1ORWXY/LB1D1

Departure

Time N/A
Airport Haikou Meilan International Airport (ZJHK)

Arrival

Time 2026-05-07 14:21
Airport Zhengzhou Xinzheng International Airport (ZHCC)
Time Latitude Longitude Altitude Speed Heading
2026-05-07 12:18 21.11484 110.30805 25378 ft 437 kts 332°
2026-05-07 12:18 21.14061 110.29082 25834 ft 438 kts 321°
2026-05-07 12:18 21.16272 110.26894 26316 ft 440 kts 311°
2026-05-07 12:18 21.18098 110.24261 26775 ft 442 kts 301°
2026-05-07 12:19 21.19673 110.21417 27268 ft 445 kts 299°
2026-05-07 12:19 21.21161 110.18493 27756 ft 448 kts 297°
2026-05-07 12:19 21.22615 110.15529 28231 ft 451 kts 297°
2026-05-07 12:19 21.24073 110.12533 28696 ft 454 kts 297°
2026-05-07 12:20 21.25545 110.09525 29168 ft 457 kts 297°
2026-05-07 12:20 21.27040 110.06500 29609 ft 461 kts 297°
2026-05-07 12:20 21.28533 110.03502 30027 ft 464 kts 297°
2026-05-07 12:20 21.30065 110.00442 30398 ft 467 kts 297°
2026-05-07 12:21 21.31607 109.97370 30781 ft 469 kts 298°
2026-05-07 12:21 21.33155 109.94289 31164 ft 471 kts 298°
2026-05-07 12:21 21.34711 109.91188 31539 ft 473 kts 298°
2026-05-07 12:21 21.36271 109.88079 31894 ft 475 kts 298°
2026-05-07 12:22 21.37838 109.84953 32235 ft 477 kts 298°
2026-05-07 12:22 21.39410 109.81812 32571 ft 479 kts 298°
2026-05-07 12:22 21.40966 109.78703 32891 ft 480 kts 297°
2026-05-07 12:22 21.42544 109.75546 33260 ft 481 kts 297°
2026-05-07 12:23 21.44124 109.72383 33634 ft 480 kts 297°
2026-05-07 12:23 21.45698 109.69232 34091 ft 478 kts 297°
2026-05-07 12:23 21.47267 109.66087 34461 ft 477 kts 297°
2026-05-07 12:23 21.48831 109.62950 34778 ft 477 kts 297°
2026-05-07 12:24 21.50397 109.59808 34967 ft 477 kts 297°
2026-05-07 12:24 21.53493 109.53614 34996 ft 472 kts 298°
2026-05-07 12:25 21.57422 109.47989 34998 ft 473 kts 314°
2026-05-07 12:25 21.62772 109.43863 34997 ft 477 kts 332°
2026-05-07 12:26 21.69139 109.41784 34999 ft 483 kts 348°
2026-05-07 12:26 21.75796 109.40831 34998 ft 489 kts 351°
2026-05-07 12:27 21.82576 109.40025 34996 ft 491 kts 351°
2026-05-07 12:27 21.89360 109.39197 34995 ft 490 kts 351°
2026-05-07 12:28 21.96134 109.38332 34996 ft 490 kts 351°
2026-05-07 12:28 22.02863 109.37459 34994 ft 490 kts 351°
2026-05-07 12:29 22.09633 109.36578 34997 ft 490 kts 351°
2026-05-07 12:29 22.16403 109.35697 34997 ft 490 kts 351°
2026-05-07 12:30 22.23176 109.34817 35001 ft 490 kts 351°
2026-05-07 12:30 22.29911 109.33940 35003 ft 492 kts 351°
2026-05-07 12:31 22.36715 109.33054 35000 ft 493 kts 351°
2026-05-07 12:31 22.43531 109.32165 35003 ft 493 kts 351°
2026-05-07 12:32 22.50342 109.31276 35006 ft 493 kts 351°
2026-05-07 12:32 22.57111 109.30392 35004 ft 494 kts 351°
2026-05-07 12:33 22.67365 109.29051 35004 ft 496 kts 351°
2026-05-07 12:33 22.74220 109.28153 35003 ft 496 kts 351°
2026-05-07 12:34 22.81021 109.27261 35006 ft 496 kts 351°
2026-05-07 12:34 22.87870 109.26363 35007 ft 496 kts 350°
2026-05-07 12:35 22.94737 109.25461 35001 ft 498 kts 349°
2026-05-07 12:35 23.01623 109.24554 35001 ft 499 kts 349°
2026-05-07 12:36 23.08515 109.23648 35003 ft 499 kts 349°
2026-05-07 12:36 23.15358 109.22746 35002 ft 499 kts 349°
2026-05-07 12:37 23.22241 109.21839 35003 ft 496 kts 349°
2026-05-07 12:37 23.29071 109.20938 35003 ft 494 kts 349°
2026-05-07 12:38 23.35885 109.20036 35000 ft 493 kts 349°
2026-05-07 12:38 23.42649 109.19140 34997 ft 493 kts 349°
2026-05-07 12:39 23.49462 109.18238 35007 ft 493 kts 349°
2026-05-07 12:39 23.56262 109.17337 35000 ft 492 kts 349°
2026-05-07 12:40 23.63055 109.16435 35003 ft 492 kts 349°
2026-05-07 12:40 23.69812 109.15602 35002 ft 494 kts 353°
2026-05-07 12:41 23.76701 109.16321 35003 ft 505 kts 11°
2026-05-07 12:41 23.83138 109.19558 34999 ft 516 kts 27°
2026-05-07 12:42 23.89172 109.23872 35013 ft 519 kts 30°
2026-05-07 12:42 23.95142 109.28336 35011 ft 520 kts 30°
2026-05-07 12:43 24.01083 109.32748 34999 ft 520 kts 30°
2026-05-07 12:43 24.07081 109.37163 35013 ft 520 kts 30°
2026-05-07 12:44 24.13086 109.41570 35014 ft 520 kts 30°
2026-05-07 12:44 24.19089 109.45981 35015 ft 520 kts 30°
2026-05-07 12:45 24.25084 109.50393 35005 ft 519 kts 30°
2026-05-07 12:45 24.31030 109.54773 35006 ft 518 kts 30°
2026-05-07 12:46 24.37010 109.59186 35014 ft 518 kts 30°
2026-05-07 12:46 24.42992 109.63614 35008 ft 519 kts 30°
2026-05-07 12:47 24.48974 109.68052 35018 ft 519 kts 30°
2026-05-07 12:47 24.54912 109.72462 35023 ft 519 kts 30°
2026-05-07 12:48 24.60890 109.76917 34996 ft 520 kts 30°
2026-05-07 12:48 24.66861 109.81388 35032 ft 519 kts 29°
2026-05-07 12:49 24.72857 109.85822 35033 ft 520 kts 29°
2026-05-07 12:49 24.78859 109.90249 35037 ft 519 kts 29°
2026-05-07 12:50 24.84813 109.94656 35039 ft 519 kts 29°
2026-05-07 12:50 24.90805 109.99103 35055 ft 519 kts 29°
2026-05-07 12:51 24.96791 110.03554 35055 ft 519 kts 29°
2026-05-07 12:51 25.02777 110.08009 35061 ft 519 kts 29°
2026-05-07 12:52 25.08719 110.12436 35063 ft 519 kts 29°
2026-05-07 12:52 25.14700 110.16899 35078 ft 519 kts 29°
2026-05-07 12:53 25.19674 110.20614 35066 ft 519 kts 29°
2026-05-07 12:53 25.26672 110.25829 35064 ft 519 kts 29°
2026-05-07 12:54 25.32627 110.30245 35071 ft 519 kts 29°
2026-05-07 12:54 25.38620 110.34699 35074 ft 519 kts 29°
2026-05-07 12:55 25.44612 110.39163 35085 ft 519 kts 29°
2026-05-07 12:55 25.49599 110.42847 35084 ft 518 kts 29°
2026-05-07 12:56 25.56586 110.47977 35102 ft 519 kts 28°
2026-05-07 12:56 25.62660 110.52274 35112 ft 518 kts 27°
2026-05-07 12:57 25.67753 110.55755 35122 ft 517 kts 27°
2026-05-07 12:57 25.73876 110.59964 35123 ft 518 kts 26°
2026-05-07 12:58 25.80011 110.64167 35126 ft 518 kts 26°
2026-05-07 12:58 25.86161 110.68308 35142 ft 517 kts 26°
2026-05-07 12:59 25.92279 110.72416 35137 ft 518 kts 26°
2026-05-07 12:59 25.98440 110.76572 35138 ft 518 kts 26°
2026-05-07 13:00 26.05595 110.81435 35161 ft 518 kts 26°
2026-05-07 13:00 26.10741 110.84941 35163 ft 517 kts 26°
2026-05-07 13:01 26.16840 110.89074 35158 ft 517 kts 26°
2026-05-07 13:01 26.23001 110.93246 35158 ft 519 kts 26°
2026-05-07 13:02 26.29149 110.97426 35164 ft 517 kts 26°
2026-05-07 13:02 26.35284 111.01608 35160 ft 517 kts 26°
2026-05-07 13:03 26.41427 111.05777 35167 ft 517 kts 26°
2026-05-07 13:03 26.47519 111.09930 35168 ft 516 kts 26°
2026-05-07 13:04 26.53649 111.14124 35161 ft 517 kts 26°
2026-05-07 13:04 26.59794 111.18329 35157 ft 519 kts 27°
2026-05-07 13:05 26.65860 111.22719 35156 ft 520 kts 28°
2026-05-07 13:05 26.71843 111.27165 35162 ft 520 kts 28°
2026-05-07 13:06 26.77877 111.31630 35157 ft 520 kts 28°
2026-05-07 13:06 26.83920 111.36069 35154 ft 519 kts 28°
2026-05-07 13:07 26.89960 111.40506 35156 ft 519 kts 28°
2026-05-07 13:07 26.96002 111.44819 35152 ft 517 kts 25°
2026-05-07 13:08 27.02234 111.48851 35157 ft 517 kts 24°
2026-05-07 13:08 27.08484 111.52864 35159 ft 518 kts 24°
2026-05-07 13:09 27.14719 111.56936 35142 ft 519 kts 25°
2026-05-07 13:09 27.20931 111.61070 35159 ft 519 kts 26°
2026-05-07 13:10 27.27045 111.65311 35156 ft 521 kts 26°
2026-05-07 13:10 27.33205 111.69610 35160 ft 521 kts 26°
2026-05-07 13:11 27.39377 111.73900 35168 ft 521 kts 25°
2026-05-07 13:11 27.45553 111.78186 35168 ft 521 kts 26°
2026-05-07 13:12 27.51686 111.82448 35161 ft 522 kts 25°
2026-05-07 13:12 27.57886 111.86750 35166 ft 524 kts 25°
2026-05-07 13:13 27.64086 111.91062 35168 ft 524 kts 25°
2026-05-07 13:13 27.70286 111.95383 35163 ft 524 kts 25°
2026-05-07 13:14 27.76442 111.99681 35169 ft 524 kts 25°
2026-05-07 13:14 27.81914 112.03510 35171 ft 524 kts 25°
2026-05-07 13:15 27.87750 112.07585 35166 ft 525 kts 25°
2026-05-07 13:15 27.93960 112.11926 35164 ft 525 kts 25°
2026-05-07 13:16 28.00129 112.16237 35182 ft 525 kts 25°
2026-05-07 13:16 28.06379 112.20537 35162 ft 526 kts 25°
2026-05-07 13:17 28.12507 112.25115 35180 ft 530 kts 29°
2026-05-07 13:17 28.18457 112.30082 35178 ft 531 kts 30°
2026-05-07 13:18 28.24399 112.34952 35168 ft 530 kts 29°
2026-05-07 13:18 28.30442 112.39760 35172 ft 530 kts 28°
2026-05-07 13:19 28.36493 112.44550 35178 ft 530 kts 28°
2026-05-07 13:19 28.42542 112.49355 35167 ft 531 kts 28°
2026-05-07 13:20 28.48555 112.54146 35173 ft 532 kts 28°
2026-05-07 13:20 28.54610 112.58981 35164 ft 532 kts 28°
2026-05-07 13:21 28.60668 112.63827 35167 ft 532 kts 28°
2026-05-07 13:21 28.66723 112.68676 35172 ft 532 kts 28°
2026-05-07 13:22 28.72783 112.73534 35168 ft 533 kts 28°
2026-05-07 13:22 28.78807 112.78370 35159 ft 534 kts 28°
2026-05-07 13:23 28.84871 112.83247 35168 ft 533 kts 29°
2026-05-07 13:23 28.90931 112.88128 35166 ft 533 kts 29°
2026-05-07 13:24 28.96987 112.93013 35176 ft 533 kts 28°
2026-05-07 13:24 29.03010 112.97877 35164 ft 534 kts 28°
2026-05-07 13:25 29.09077 113.02783 35167 ft 534 kts 29°
2026-05-07 13:25 29.15140 113.07695 35170 ft 534 kts 29°
2026-05-07 13:26 29.21202 113.12612 35167 ft 534 kts 29°
2026-05-07 13:26 29.27211 113.17501 35167 ft 533 kts 29°
2026-05-07 13:27 29.33257 113.22429 35176 ft 533 kts 29°
2026-05-07 13:27 29.39605 113.26670 35172 ft 526 kts 21°
2026-05-07 13:28 29.46083 113.30573 35180 ft 526 kts 20°
2026-05-07 13:28 29.52543 113.34399 35187 ft 526 kts 20°
2026-05-07 13:29 29.59043 113.38260 35171 ft 526 kts 20°
2026-05-07 13:29 29.65538 113.42143 35192 ft 526 kts 20°
2026-05-07 13:30 29.72033 113.46036 35184 ft 526 kts 20°
2026-05-07 13:30 29.78526 113.49934 35184 ft 526 kts 20°
2026-05-07 13:31 29.84977 113.53811 35183 ft 526 kts 20°
2026-05-07 13:31 29.91469 113.57718 35184 ft 526 kts 20°
2026-05-07 13:32 29.97984 113.61538 35193 ft 523 kts 17°
2026-05-07 13:32 30.04650 113.64821 35175 ft 520 kts 15°
2026-05-07 13:33 30.11343 113.68005 35193 ft 520 kts 15°
2026-05-07 13:33 30.17972 113.71247 35192 ft 521 kts 15°
2026-05-07 13:34 30.27958 113.76238 35184 ft 521 kts 16°
2026-05-07 13:35 30.34609 113.79579 35187 ft 521 kts 16°
2026-05-07 13:35 30.41266 113.82925 35192 ft 522 kts 16°
2026-05-07 13:36 30.47887 113.86254 35193 ft 522 kts 16°
2026-05-07 13:36 30.54551 113.89611 35194 ft 522 kts 16°
2026-05-07 13:37 30.61216 113.92973 35207 ft 523 kts 16°
2026-05-07 13:37 30.67894 113.96313 35198 ft 522 kts 15°
2026-05-07 13:38 30.74534 113.99631 35200 ft 525 kts 18°
2026-05-07 13:38 30.81121 114.03347 35201 ft 526 kts 18°
2026-05-07 13:39 30.87726 114.07009 35195 ft 526 kts 17°
2026-05-07 13:39 30.94352 114.10605 35204 ft 525 kts 17°
2026-05-07 13:40 31.00976 114.14195 35203 ft 525 kts 17°
2026-05-07 13:40 31.07552 114.17771 35217 ft 525 kts 17°
2026-05-07 13:41 31.14172 114.21368 35206 ft 525 kts 17°
2026-05-07 13:41 31.20794 114.24971 35212 ft 525 kts 17°
2026-05-07 13:42 31.27417 114.28581 35208 ft 525 kts 17°
2026-05-07 13:42 31.34051 114.31928 35209 ft 516 kts
2026-05-07 13:42 31.37495 114.32891 35209 ft 504 kts
2026-05-07 13:43 31.40951 114.33287 35209 ft 497 kts 355°
2026-05-07 13:43 31.47841 114.33619 35211 ft 494 kts 353°
2026-05-07 13:44 31.54712 114.33775 35218 ft 494 kts 352°
2026-05-07 13:44 31.61588 114.33934 35224 ft 494 kts 353°
2026-05-07 13:45 31.68419 114.34123 35226 ft 494 kts 353°
2026-05-07 13:45 31.75300 114.34338 35235 ft 495 kts 353°
2026-05-07 13:46 31.82182 114.34552 35236 ft 494 kts 353°
2026-05-07 13:46 31.89041 114.34764 35236 ft 493 kts 353°
2026-05-07 13:47 31.95847 114.34961 35239 ft 493 kts 353°
2026-05-07 13:47 32.02702 114.35163 35240 ft 493 kts 353°
2026-05-07 13:48 32.09546 114.35370 35241 ft 492 kts 353°
2026-05-07 13:48 32.16387 114.35578 35242 ft 491 kts 353°
2026-05-07 13:49 32.23178 114.35785 35248 ft 491 kts 353°
2026-05-07 13:49 32.26575 114.35893 34979 ft 485 kts 353°
2026-05-07 13:49 32.29957 114.36091 34174 ft 490 kts 356°
2026-05-07 13:49 32.33386 114.36393 33075 ft 498 kts 357°
2026-05-07 13:50 32.36837 114.36747 32234 ft 498 kts 358°
2026-05-07 13:50 32.40295 114.37113 31418 ft 498 kts 358°
2026-05-07 13:50 32.43742 114.37469 30596 ft 498 kts 358°
2026-05-07 13:50 32.47193 114.37810 29673 ft 497 kts 358°
2026-05-07 13:51 32.50639 114.38139 28757 ft 496 kts 358°
2026-05-07 13:51 32.54071 114.38460 28017 ft 492 kts 357°
2026-05-07 13:51 32.57423 114.38771 27348 ft 487 kts 357°
2026-05-07 13:51 32.60784 114.39080 26638 ft 483 kts 357°
2026-05-07 13:52 32.64118 114.39385 25925 ft 479 kts 358°
2026-05-07 13:52 32.67432 114.39693 25234 ft 476 kts 358°
2026-05-07 13:52 32.70715 114.39997 24563 ft 472 kts 358°
2026-05-07 13:52 32.73977 114.40297 23891 ft 469 kts 358°
2026-05-07 13:53 32.77218 114.40596 23173 ft 464 kts 358°
2026-05-07 13:53 32.80415 114.40893 22546 ft 457 kts 359°
2026-05-07 13:53 32.83557 114.41187 21939 ft 449 kts 359°
2026-05-07 13:53 32.86607 114.41471 21337 ft 442 kts 359°
2026-05-07 13:54 32.89652 114.41754 20732 ft 436 kts 360°
2026-05-07 13:54 32.92647 114.42034 20190 ft 428 kts
2026-05-07 13:54 32.95608 114.42309 19924 ft 426 kts
2026-05-07 13:54 32.98564 114.42584 19868 ft 426 kts
2026-05-07 13:55 33.01512 114.42859 19812 ft 425 kts
2026-05-07 13:55 33.04462 114.43135 19789 ft 426 kts
2026-05-07 13:55 33.07420 114.43411 19791 ft 426 kts
2026-05-07 13:55 33.10335 114.43685 19787 ft 426 kts
2026-05-07 13:56 33.13289 114.43962 19790 ft 426 kts
2026-05-07 13:56 33.16246 114.44240 19794 ft 426 kts
2026-05-07 13:56 33.19201 114.44518 19796 ft 426 kts
2026-05-07 13:56 33.22157 114.44766 19791 ft 425 kts 358°
2026-05-07 13:57 33.25084 114.44578 19803 ft 420 kts 347°
2026-05-07 13:57 33.27876 114.43653 19801 ft 414 kts 335°
2026-05-07 13:57 33.30388 114.42021 19799 ft 411 kts 323°
2026-05-07 13:57 33.32517 114.39798 19636 ft 400 kts 311°
2026-05-07 13:58 33.34142 114.37190 18891 ft 398 kts 301°
2026-05-07 13:58 33.35258 114.34141 17941 ft 404 kts 289°
2026-05-07 13:58 33.35787 114.30842 17138 ft 404 kts 277°
2026-05-07 13:58 33.35792 114.27494 16448 ft 401 kts 271°
2026-05-07 13:59 33.35868 114.24191 15735 ft 394 kts 278°
2026-05-07 13:59 33.36445 114.21021 15045 ft 388 kts 290°
2026-05-07 13:59 33.37496 114.18080 14358 ft 382 kts 298°
2026-05-07 13:59 33.38899 114.15404 13634 ft 378 kts 307°
2026-05-07 14:00 33.40596 114.13032 12897 ft 373 kts 315°
2026-05-07 14:00 33.42505 114.11036 12295 ft 367 kts 323°
2026-05-07 14:00 33.44635 114.09379 12023 ft 365 kts 331°
2026-05-07 14:00 33.46929 114.08094 11988 ft 364 kts 339°
2026-05-07 14:01 33.49347 114.07196 12010 ft 364 kts 346°
2026-05-07 14:01 33.51835 114.06711 11802 ft 361 kts 354°
2026-05-07 14:01 33.54346 114.06663 11770 ft 362 kts
2026-05-07 14:01 33.56856 114.07024 11787 ft 364 kts
2026-05-07 14:02 33.59311 114.07745 11771 ft 364 kts 13°
2026-05-07 14:02 33.61756 114.08549 11773 ft 365 kts 13°
2026-05-07 14:02 33.64198 114.09172 11772 ft 363 kts
2026-05-07 14:02 33.66711 114.09201 11772 ft 361 kts 352°
2026-05-07 14:03 33.69138 114.08458 11774 ft 361 kts 339°
2026-05-07 14:03 33.71454 114.07299 11772 ft 361 kts 336°
2026-05-07 14:03 33.73745 114.06062 11772 ft 361 kts 336°
2026-05-07 14:03 33.76037 114.04808 11776 ft 363 kts 336°
2026-05-07 14:04 33.78333 114.03546 11774 ft 363 kts 336°
2026-05-07 14:04 33.80630 114.02283 11769 ft 363 kts 336°
2026-05-07 14:04 33.82929 114.01018 11785 ft 363 kts 336°
2026-05-07 14:04 33.85192 113.99772 11776 ft 362 kts 336°
2026-05-07 14:05 33.87480 113.98512 11776 ft 361 kts 336°
2026-05-07 14:05 33.89715 113.97279 11775 ft 343 kts 336°
2026-05-07 14:05 33.91846 113.96103 11776 ft 334 kts 336°
2026-05-07 14:05 33.93950 113.94942 11776 ft 333 kts 336°
2026-05-07 14:06 33.96054 113.93781 11776 ft 332 kts 336°
2026-05-07 14:06 33.98156 113.92620 11776 ft 333 kts 336°
2026-05-07 14:06 34.00235 113.91471 11495 ft 321 kts 336°
2026-05-07 14:06 34.02175 113.90397 11027 ft 300 kts 336°
2026-05-07 14:07 34.04000 113.89384 10632 ft 279 kts 336°
2026-05-07 14:07 34.05720 113.88431 10137 ft 266 kts 336°
2026-05-07 14:07 34.07343 113.87532 9768 ft 249 kts 337°
2026-05-07 14:07 34.08885 113.86678 9201 ft 241 kts 336°
2026-05-07 14:08 34.10398 113.85841 8526 ft 238 kts 336°
2026-05-07 14:08 34.11902 113.85008 7873 ft 237 kts 336°
2026-05-07 14:08 34.13400 113.84178 7214 ft 237 kts 336°
2026-05-07 14:08 34.14879 113.83358 6652 ft 239 kts 336°
2026-05-07 14:09 34.16389 113.82521 6270 ft 238 kts 336°
2026-05-07 14:09 34.17870 113.81638 5908 ft 237 kts 333°
2026-05-07 14:09 34.19321 113.80701 5529 ft 236 kts 333°
2026-05-07 14:09 34.20773 113.79761 5133 ft 237 kts 333°
2026-05-07 14:10 34.22220 113.78816 4902 ft 236 kts 332°
2026-05-07 14:10 34.23634 113.77885 4880 ft 228 kts 332°
2026-05-07 14:10 34.25020 113.76970 4882 ft 227 kts 332°
2026-05-07 14:10 34.26403 113.76055 4889 ft 226 kts 332°
2026-05-07 14:11 34.27764 113.75154 4886 ft 226 kts 332°
2026-05-07 14:11 34.29144 113.74235 4887 ft 228 kts 331°
2026-05-07 14:11 34.30541 113.73306 4900 ft 230 kts 331°
2026-05-07 14:11 34.31942 113.72377 4895 ft 230 kts 331°
2026-05-07 14:12 34.33344 113.71447 4900 ft 230 kts 331°
2026-05-07 14:12 34.34747 113.70515 4900 ft 230 kts 331°
2026-05-07 14:12 34.36149 113.69583 4900 ft 228 kts 331°
2026-05-07 14:12 34.37498 113.68684 4900 ft 217 kts 332°
2026-05-07 14:13 34.38797 113.67820 4904 ft 216 kts 332°
2026-05-07 14:13 34.40109 113.66947 4903 ft 215 kts 332°
2026-05-07 14:13 34.41419 113.66075 4904 ft 215 kts 332°
2026-05-07 14:13 34.42729 113.65203 4905 ft 215 kts 332°
2026-05-07 14:14 34.44040 113.64329 4903 ft 215 kts 332°
2026-05-07 14:14 34.45351 113.63456 4898 ft 215 kts 332°
2026-05-07 14:14 34.46665 113.62588 4763 ft 215 kts 333°
2026-05-07 14:14 34.48078 113.62054 4444 ft 214 kts 357°
2026-05-07 14:15 34.49509 113.62350 4129 ft 212 kts 20°
2026-05-07 14:15 34.50881 113.63003 3834 ft 210 kts 24°
2026-05-07 14:15 34.52209 113.63685 3480 ft 206 kts 24°
2026-05-07 14:15 34.53529 113.64361 3146 ft 206 kts 25°
2026-05-07 14:16 34.54823 113.65015 3028 ft 195 kts 25°
2026-05-07 14:16 34.56035 113.65622 3023 ft 185 kts 25°
2026-05-07 14:16 34.57218 113.66219 3038 ft 183 kts 25°
2026-05-07 14:16 34.58284 113.67027 3038 ft 180 kts 45°
2026-05-07 14:17 34.58732 113.68352 3033 ft 171 kts 86°
2026-05-07 14:17 34.58691 113.69762 3025 ft 170 kts 94°
2026-05-07 14:17 34.58400 113.71114 2836 ft 162 kts 115°
2026-05-07 14:17 34.57919 113.72326 2606 ft 157 kts 110°
2026-05-07 14:18 34.57532 113.73508 2401 ft 145 kts 109°
2026-05-07 14:18 34.57164 113.74623 2199 ft 139 kts 110°
2026-05-07 14:18 34.56802 113.75689 2029 ft 136 kts 108°
2026-05-07 14:18 34.56443 113.76754 1844 ft 137 kts 109°
2026-05-07 14:19 34.56080 113.77824 1664 ft 137 kts 109°
2026-05-07 14:19 34.55717 113.78893 1470 ft 137 kts 109°
2026-05-07 14:19 34.55354 113.79962 1289 ft 137 kts 110°
2026-05-07 14:19 34.54995 113.81018 1096 ft 138 kts 110°
2026-05-07 14:20 34.54633 113.82091 881 ft 138 kts 110°
2026-05-07 14:20 34.54272 113.83147 674 ft 138 kts 111°
2026-05-07 14:20 34.53908 113.84215 542 ft 139 kts 110°
2026-05-07 14:20 34.53567 113.85235 505 ft 114 kts 110°
2026-05-07 14:21 34.53367 113.85821 504 ft 44 kts 127°
2026-05-07 14:21 34.53216 113.86003 506 ft 12 kts 139°
2026-05-07 14:21 34.53206 113.86012 506 ft 0 kts 142°
2026-05-07 14:22 34.53201 113.86017 507 ft 4 kts 142°
2026-05-07 14:22 34.53185 113.86028 507 ft 1 kts 157°
2026-05-07 14:23 34.53180 113.86028 508 ft 2 kts 174°
2026-05-07 14:23 34.53135 113.85970 510 ft 12 kts 261°
2026-05-07 14:23 34.53155 113.85863 510 ft 14 kts 291°
2026-05-07 14:23 34.53198 113.85738 510 ft 17 kts 292°
2026-05-07 14:24 34.53248 113.85592 510 ft 20 kts 293°
2026-05-07 14:24 34.53306 113.85426 510 ft 23 kts 292°
2026-05-07 14:24 34.53367 113.85242 510 ft 24 kts 291°
2026-05-07 14:24 34.53430 113.85052 510 ft 25 kts 292°
2026-05-07 14:25 34.53468 113.84940 510 ft 9 kts 291°
2026-05-07 14:25 34.53460 113.84871 511 ft 9 kts 227°
2026-05-07 14:25 34.53404 113.84868 511 ft 9 kts 169°